GFSNE_prec_precacc24_177.txt.gz
Total_Precipitation_Accumulation
0.00 0.00 0.00 0.00 0.00 0.00 0.00 0.00 0.00 0.00 0.00 0.00 0.00 0.00 0.00 0.00 0.00 0.00 0.00 0.00 0.00 0.00 0.00 0.00 0.00 0.00 0.00 0.00 0.00 0.00 0.00 0.00 0.00 0.00 0.00 0.00 0.00 0.01
0.00 0.00 0.00 0.00 0.00 0.00 0.00 0.00 0.00 0.00 0.00 0.00 0.00 0.00 0.00 0.00 0.00 0.00 0.00 0.00 0.00 0.00 0.00 0.00 0.00 0.00 0.00 0.00 0.00 0.00 0.00 0.00 0.00 0.00 0.00 0.01 0.01 0.02
0.00 0.00 0.00 0.00 0.00 0.00 0.00 0.00 0.00 0.00 0.00 0.00 0.00 0.00 0.00 0.00 0.00 0.00 0.00 0.00 0.00 0.00 0.00 0.00 0.00 0.00 0.00 0.00 0.00 0.00 0.00 0.00 0.00 0.01 0.01 0.03 0.04 0.06
0.00 0.00 0.00 0.00 0.00 0.00 0.00 0.00 0.00 0.00 0.00 0.00 0.00 0.00 0.00 0.00 0.00 0.00 0.00 0.00 0.00 0.00 0.00 0.00 0.00 0.00 0.00 0.00 0.00 0.00 0.00 0.01 0.01 0.01 0.01 0.03 0.04 0.06
0.00 0.00 0.00 0.00 0.00 0.00 0.00 0.00 0.00 0.00 0.00 0.00 0.00 0.00 0.00 0.00 0.00 0.00 0.00 0.00 0.00 0.00 0.00 0.00 0.00 0.00 0.00 0.00 0.00 0.00 0.00 0.01 0.01 0.01 0.01 0.02 0.02 0.04
0.00 0.00 0.00 0.00 0.00 0.00 0.00 0.00 0.00 0.00 0.00 0.00 0.00 0.00 0.00 0.00 0.00 0.00 0.00 0.00 0.00 0.00 0.00 0.00 0.00 0.00 0.00 0.00 0.00 0.00 0.01 0.01 0.01 0.01 0.01 0.01 0.02 0.02
0.00 0.00 0.00 0.00 0.00 0.00 0.00 0.00 0.00 0.00 0.00 0.00 0.00 0.00 0.00 0.00 0.00 0.00 0.00 0.00 0.00 0.00 0.00 0.00 0.00 0.00 0.00 0.00 0.00 0.00 0.00 0.00 0.00 0.01 0.02 0.03 0.04 0.04
0.00 0.00 0.00 0.00 0.00 0.00 0.00 0.00 0.00 0.00 0.00 0.01 0.00 0.00 0.00 0.00 0.00 0.01 0.02 0.04 0.04 0.01 0.02 0.01 0.00 0.00 0.00 0.00 0.00 0.00 0.00 0.00 0.01 0.01 0.02 0.04 0.05 0.05
0.00 0.00 0.00 0.00 0.00 0.00 0.00 0.00 0.00 0.00 0.00 0.01 0.01 0.01 0.01 0.01 0.03 0.05 0.08 0.12 0.09 0.02 0.03 0.04 0.01 0.00 0.00 0.00 0.00 0.00 0.00 0.00 0.01 0.02 0.02 0.03 0.05 0.06
0.00 0.00 0.00 0.00 0.00 0.00 0.00 0.00 0.00 0.00 0.00 0.00 0.01 0.01 0.01 0.03 0.05 0.13 0.16 0.14 0.05 0.01 0.03 0.05 0.00 0.00 0.00 0.00 0.00 0.00 0.00 0.00 0.01 0.02 0.03 0.05 0.06 0.06
0.00 0.00 0.00 0.00 0.00 0.00 0.00 0.00 0.00 0.00 0.00 0.00 0.02 0.03 0.05 0.06 0.05 0.08 0.10 0.14 0.09 0.01 0.00 0.03 0.01 0.00 0.00 0.00 0.00 0.00 0.01 0.01 0.02 0.03 0.04 0.05 0.06 0.07
0.00 0.00 0.00 0.00 0.00 0.01 0.03 0.03 0.04 0.00 0.01 0.01 0.02 0.02 0.02 0.01 0.01 0.04 0.07 0.16 0.14 0.14 0.02 0.09 0.06 0.07 0.18 0.02 0.00 0.00 0.01 0.02 0.03 0.04 0.06 0.08 0.11 0.12
0.00 0.00 0.00 0.00 0.02 0.05 0.05 0.03 0.06 0.05 0.04 0.03 0.02 0.01 0.00 0.00 0.00 0.01 0.03 0.11 0.26 0.24 0.04 0.23 0.34 0.18 0.29 0.13 0.02 0.00 0.02 0.04 0.08 0.11 0.13 0.17 0.19 0.23
0.00 0.00 0.00 0.02 0.04 0.03 0.03 0.03 0.05 0.05 0.03 0.01 0.01 0.00 0.00 0.01 0.01 0.01 0.02 0.06 0.11 0.19 0.07 0.21 0.55 0.28 0.33 0.32 0.14 0.02 0.04 0.07 0.10 0.14 0.16 0.18 0.22 0.28
0.00 0.00 0.02 0.03 0.02 0.02 0.01 0.02 0.02 0.01 0.01 0.01 0.01 0.01 0.01 0.01 0.01 0.01 0.02 0.07 0.16 0.18 0.21 0.27 0.39 0.36 0.45 0.45 0.23 0.09 0.08 0.08 0.10 0.14 0.15 0.17 0.15 0.14
0.00 0.01 0.02 0.02 0.01 0.00 0.00 0.00 0.00 0.00 0.02 0.03 0.02 0.01 0.01 0.02 0.02 0.02 0.06 0.07 0.19 0.19 0.19 0.33 0.34 0.43 0.55 0.30 0.22 0.18 0.09 0.16 0.10 0.12 0.15 0.12 0.13 0.18
0.04 0.02 0.01 0.01 0.00 0.00 0.00 0.00 0.00 0.01 0.01 0.01 0.02 0.02 0.02 0.02 0.03 0.03 0.09 0.17 0.24 0.12 0.12 0.16 0.27 0.31 0.34 0.37 0.34 0.17 0.15 0.17 0.12 0.15 0.14 0.08 0.08 0.11
0.03 0.02 0.01 0.00 0.00 0.00 0.01 0.01 0.00 0.00 0.01 0.02 0.04 0.05 0.08 0.09 0.07 0.06 0.09 0.18 0.16 0.09 0.11 0.13 0.21 0.27 0.23 0.21 0.22 0.15 0.16 0.15 0.13 0.13 0.11 0.08 0.05 0.06
0.01 0.00 0.00 0.00 0.01 0.01 0.01 0.02 0.02 0.01 0.02 0.04 0.07 0.10 0.11 0.11 0.14 0.13 0.08 0.11 0.12 0.09 0.08 0.12 0.19 0.25 0.20 0.07 0.05 0.09 0.14 0.10 0.14 0.17 0.12 0.09 0.06 0.04
0.00 0.01 0.01 0.01 0.01 0.01 0.03 0.02 0.03 0.04 0.04 0.06 0.10 0.10 0.12 0.16 0.12 0.10 0.11 0.15 0.16 0.16 0.14 0.10 0.11 0.18 0.23 0.16 0.12 0.01 0.03 0.08 0.13 0.09 0.06 0.06 0.05 0.03
0.01 0.00 0.00 0.00 0.03 0.04 0.04 0.07 0.08 0.09 0.09 0.12 0.11 0.10 0.07 0.13 0.12 0.08 0.10 0.11 0.16 0.13 0.10 0.06 0.03 0.10 0.14 0.12 0.10 0.03 0.03 0.06 0.05 0.06 0.04 0.05 0.02 0.01
0.00 0.00 0.01 0.04 0.04 0.06 0.11 0.11 0.10 0.08 0.09 0.07 0.06 0.06 0.06 0.10 0.12 0.09 0.07 0.11 0.09 0.08 0.06 0.03 0.02 0.10 0.07 0.10 0.06 0.06 0.04 0.03 0.03 0.01 0.02 0.05 0.06 0.04
0.01 0.05 0.07 0.05 0.08 0.12 0.12 0.16 0.13 0.08 0.04 0.06 0.07 0.06 0.07 0.10 0.06 0.10 0.09 0.09 0.09 0.11 0.07 0.05 0.05 0.06 0.05 0.07 0.08 0.04 0.03 0.01 0.00 0.00 0.00 0.00 0.01 0.01

GFSNE_prec_precacc24_180.txt.gz
Total_Precipitation_Accumulation
0.00 0.00 0.00 0.00 0.00 0.00 0.00 0.00 0.00 0.00 0.00 0.00 0.00 0.00 0.00 0.00 0.00 0.00 0.00 0.00 0.00 0.00 0.00 0.00 0.00 0.00 0.00 0.00 0.00 0.00 0.00 0.00 0.00 0.00 0.00 0.00 0.00 0.01
0.00 0.00 0.00 0.00 0.00 0.00 0.00 0.00 0.00 0.00 0.00 0.00 0.00 0.00 0.00 0.00 0.00 0.00 0.00 0.00 0.00 0.00 0.00 0.00 0.00 0.00 0.00 0.00 0.00 0.00 0.00 0.00 0.00 0.00 0.01 0.01 0.01 0.02
0.00 0.00 0.00 0.00 0.00 0.00 0.00 0.00 0.00 0.00 0.00 0.00 0.00 0.00 0.00 0.00 0.00 0.00 0.00 0.00 0.00 0.00 0.00 0.00 0.00 0.00 0.00 0.00 0.00 0.00 0.00 0.00 0.01 0.01 0.02 0.03 0.04 0.06
0.00 0.00 0.00 0.00 0.00 0.00 0.00 0.00 0.00 0.00 0.00 0.00 0.00 0.00 0.00 0.00 0.00 0.00 0.00 0.00 0.00 0.00 0.00 0.00 0.00 0.00 0.00 0.00 0.00 0.00 0.00 0.01 0.01 0.01 0.02 0.03 0.05 0.06
0.00 0.00 0.00 0.00 0.00 0.00 0.00 0.00 0.00 0.00 0.00 0.00 0.00 0.00 0.00 0.00 0.00 0.00 0.00 0.00 0.00 0.00 0.00 0.00 0.00 0.00 0.00 0.00 0.00 0.00 0.01 0.01 0.01 0.02 0.02 0.03 0.03 0.04
0.00 0.00 0.00 0.00 0.00 0.00 0.00 0.00 0.00 0.00 0.00 0.00 0.00 0.00 0.00 0.00 0.00 0.00 0.00 0.00 0.00 0.00 0.00 0.00 0.00 0.00 0.00 0.00 0.00 0.00 0.01 0.01 0.02 0.01 0.01 0.02 0.02 0.03
0.00 0.00 0.00 0.00 0.00 0.00 0.00 0.00 0.00 0.00 0.00 0.00 0.00 0.00 0.00 0.00 0.00 0.00 0.00 0.00 0.00 0.00 0.00 0.00 0.00 0.00 0.00 0.00 0.00 0.00 0.00 0.01 0.01 0.01 0.03 0.04 0.05 0.05
0.00 0.00 0.00 0.00 0.00 0.00 0.00 0.00 0.00 0.00 0.00 0.01 0.00 0.00 0.00 0.00 0.00 0.01 0.02 0.04 0.05 0.01 0.02 0.01 0.00 0.00 0.00 0.00 0.00 0.00 0.00 0.01 0.01 0.02 0.03 0.05 0.06 0.07
0.00 0.00 0.00 0.00 0.00 0.00 0.00 0.00 0.00 0.00 0.00 0.01 0.01 0.01 0.01 0.01 0.03 0.06 0.08 0.12 0.09 0.02 0.03 0.04 0.01 0.00 0.00 0.00 0.00 0.00 0.00 0.01 0.01 0.02 0.02 0.04 0.06 0.07
0.00 0.00 0.00 0.00 0.00 0.00 0.00 0.00 0.00 0.00 0.00 0.00 0.01 0.01 0.01 0.03 0.05 0.13 0.16 0.13 0.04 0.01 0.03 0.05 0.00 0.00 0.00 0.00 0.00 0.00 0.00 0.00 0.01 0.02 0.04 0.06 0.07 0.07
0.00 0.00 0.00 0.00 0.00 0.00 0.00 0.00 0.00 0.00 0.00 0.00 0.01 0.03 0.05 0.06 0.05 0.06 0.08 0.11 0.06 0.01 0.00 0.03 0.01 0.00 0.00 0.00 0.00 0.00 0.01 0.01 0.02 0.03 0.04 0.05 0.06 0.08
0.00 0.00 0.00 0.00 0.00 0.01 0.03 0.03 0.03 0.00 0.01 0.01 0.02 0.02 0.02 0.01 0.01 0.03 0.03 0.09 0.09 0.10 0.01 0.09 0.05 0.06 0.17 0.02 0.00 0.00 0.01 0.02 0.03 0.04 0.06 0.08 0.11 0.13
0.00 0.00 0.00 0.00 0.02 0.04 0.04 0.03 0.06 0.05 0.03 0.03 0.01 0.01 0.00 0.00 0.00 0.01 0.01 0.07 0.21 0.17 0.02 0.21 0.29 0.15 0.28 0.13 0.02 0.00 0.02 0.04 0.08 0.11 0.13 0.17 0.20 0.24
0.00 0.00 0.00 0.02 0.04 0.03 0.03 0.03 0.04 0.05 0.03 0.01 0.00 0.00 0.00 0.01 0.00 0.00 0.01 0.02 0.04 0.12 0.02 0.09 0.45 0.26 0.31 0.32 0.14 0.02 0.04 0.07 0.10 0.14 0.16 0.18 0.22 0.28
0.00 0.00 0.02 0.03 0.02 0.02 0.01 0.02 0.01 0.01 0.01 0.01 0.01 0.01 0.01 0.01 0.01 0.01 0.01 0.01 0.01 0.01 0.01 0.05 0.27 0.32 0.42 0.44 0.23 0.10 0.09 0.08 0.10 0.14 0.16 0.17 0.15 0.14
0.00 0.01 0.01 0.01 0.01 0.00 0.00 0.00 0.00 0.00 0.01 0.02 0.02 0.01 0.01 0.01 0.01 0.01 0.04 0.02 0.06 0.03 0.03 0.08 0.15 0.34 0.48 0.28 0.23 0.18 0.09 0.16 0.10 0.12 0.15 0.12 0.13 0.18
0.03 0.02 0.00 0.00 0.00 0.00 0.00 0.00 0.00 0.00 0.01 0.01 0.02 0.02 0.02 0.01 0.01 0.01 0.04 0.08 0.12 0.05 0.04 0.03 0.09 0.20 0.29 0.34 0.32 0.17 0.15 0.17 0.12 0.15 0.15 0.08 0.08 0.11
0.01 0.01 0.00 0.00 0.00 0.00 0.01 0.01 0.00 0.01 0.01 0.02 0.03 0.04 0.06 0.07 0.05 0.05 0.06 0.10 0.09 0.04 0.05 0.06 0.12 0.16 0.14 0.16 0.19 0.14 0.15 0.15 0.13 0.13 0.10 0.09 0.05 0.06
0.00 0.00 0.00 0.00 0.00 0.00 0.01 0.02 0.01 0.01 0.02 0.04 0.06 0.08 0.10 0.09 0.09 0.08 0.04 0.07 0.06 0.04 0.04 0.08 0.17 0.24 0.20 0.06 0.05 0.09 0.14 0.09 0.13 0.16 0.12 0.09 0.06 0.04
0.00 0.00 0.00 0.00 0.00 0.02 0.03 0.02 0.03 0.03 0.03 0.05 0.08 0.08 0.11 0.14 0.08 0.05 0.06 0.10 0.10 0.10 0.08 0.07 0.10 0.18 0.25 0.18 0.14 0.01 0.03 0.07 0.11 0.09 0.06 0.06 0.05 0.03
0.00 0.00 0.00 0.00 0.03 0.04 0.03 0.05 0.06 0.06 0.07 0.10 0.10 0.09 0.05 0.11 0.09 0.04 0.06 0.07 0.12 0.10 0.08 0.04 0.03 0.09 0.13 0.11 0.09 0.02 0.02 0.04 0.05 0.06 0.04 0.05 0.03 0.01
0.00 0.00 0.01 0.04 0.03 0.05 0.09 0.09 0.08 0.08 0.09 0.07 0.04 0.05 0.05 0.08 0.10 0.08 0.06 0.09 0.06 0.06 0.05 0.01 0.01 0.07 0.06 0.10 0.06 0.05 0.03 0.03 0.03 0.01 0.02 0.05 0.06 0.04
0.01 0.04 0.06 0.04 0.08 0.12 0.12 0.12 0.10 0.06 0.02 0.05 0.06 0.05 0.06 0.09 0.06 0.08 0.08 0.07 0.07 0.08 0.04 0.03 0.04 0.05 0.04 0.06 0.08 0.04 0.03 0.01 0.00 0.00 0.00 0.00 0.01 0.01

GFSNE_prec_precacc24_186.txt.gz
Total_Precipitation_Accumulation
0.00 0.00 0.00 0.00 0.00 0.00 0.00 0.00 0.00 0.00 0.00 0.00 0.00 0.00 0.00 0.00 0.00 0.00 0.00 0.00 0.00 0.00 0.00 0.00 0.00 0.00 0.00 0.00 0.00 0.00 0.00 0.00 0.00 0.00 0.00 0.00 0.01 0.02
0.00 0.00 0.00 0.00 0.00 0.00 0.00 0.00 0.00 0.00 0.00 0.00 0.00 0.00 0.00 0.00 0.00 0.00 0.00 0.00 0.00 0.00 0.00 0.00 0.00 0.00 0.00 0.00 0.00 0.00 0.00 0.00 0.00 0.01 0.01 0.02 0.02 0.03
0.00 0.00 0.00 0.00 0.00 0.00 0.00 0.00 0.00 0.00 0.00 0.00 0.00 0.00 0.00 0.00 0.00 0.00 0.00 0.00 0.00 0.00 0.00 0.00 0.00 0.00 0.00 0.00 0.00 0.00 0.00 0.00 0.01 0.01 0.02 0.03 0.05 0.08
0.00 0.00 0.00 0.00 0.00 0.00 0.00 0.00 0.00 0.00 0.00 0.00 0.00 0.00 0.00 0.00 0.00 0.00 0.00 0.00 0.00 0.00 0.00 0.00 0.00 0.00 0.00 0.00 0.00 0.00 0.01 0.01 0.01 0.02 0.02 0.04 0.07 0.08
0.00 0.00 0.00 0.00 0.00 0.00 0.00 0.00 0.00 0.00 0.00 0.00 0.00 0.00 0.00 0.00 0.00 0.00 0.00 0.00 0.00 0.00 0.00 0.00 0.00 0.00 0.00 0.00 0.00 0.00 0.01 0.01 0.01 0.03 0.03 0.04 0.04 0.05
0.00 0.00 0.00 0.00 0.00 0.00 0.00 0.00 0.00 0.00 0.00 0.00 0.00 0.00 0.00 0.00 0.00 0.00 0.00 0.00 0.00 0.00 0.00 0.00 0.00 0.00 0.00 0.00 0.00 0.00 0.01 0.02 0.02 0.03 0.04 0.05 0.06 0.05
0.00 0.00 0.00 0.00 0.00 0.00 0.00 0.00 0.00 0.00 0.00 0.00 0.00 0.00 0.00 0.00 0.00 0.00 0.00 0.00 0.00 0.00 0.00 0.00 0.00 0.00 0.00 0.00 0.00 0.00 0.01 0.01 0.02 0.05 0.06 0.07 0.07 0.07
0.00 0.00 0.00 0.00 0.00 0.00 0.00 0.00 0.00 0.00 0.00 0.00 0.00 0.00 0.00 0.00 0.00 0.01 0.02 0.04 0.05 0.01 0.02 0.01 0.00 0.00 0.00 0.00 0.00 0.00 0.00 0.01 0.04 0.03 0.03 0.05 0.07 0.10
0.00 0.00 0.00 0.00 0.00 0.00 0.00 0.00 0.00 0.00 0.00 0.01 0.01 0.00 0.00 0.01 0.02 0.05 0.08 0.12 0.09 0.02 0.03 0.04 0.01 0.00 0.00 0.00 0.00 0.00 0.00 0.03 0.02 0.02 0.03 0.05 0.08 0.09
0.00 0.00 0.00 0.00 0.00 0.00 0.00 0.00 0.00 0.00 0.00 0.00 0.01 0.01 0.01 0.03 0.05 0.12 0.15 0.12 0.04 0.01 0.02 0.03 0.00 0.00 0.00 0.00 0.00 0.00 0.01 0.00 0.01 0.02 0.04 0.06 0.07 0.08
0.00 0.00 0.00 0.00 0.00 0.00 0.00 0.00 0.00 0.00 0.00 0.00 0.01 0.03 0.04 0.05 0.04 0.05 0.07 0.09 0.04 0.00 0.00 0.03 0.01 0.00 0.00 0.00 0.00 0.00 0.00 0.00 0.01 0.01 0.03 0.04 0.06 0.08
0.00 0.00 0.00 0.00 0.00 0.01 0.03 0.02 0.03 0.00 0.00 0.01 0.01 0.01 0.01 0.00 0.01 0.02 0.03 0.08 0.07 0.07 0.00 0.08 0.05 0.05 0.11 0.00 0.00 0.00 0.00 0.00 0.00 0.00 0.02 0.05 0.09 0.10
0.00 0.00 0.00 0.00 0.01 0.04 0.03 0.02 0.03 0.02 0.01 0.01 0.00 0.00 0.00 0.00 0.00 0.00 0.01 0.04 0.15 0.11 0.01 0.19 0.20 0.07 0.19 0.06 0.00 0.00 0.00 0.00 0.00 0.00 0.01 0.07 0.14 0.19
0.00 0.00 0.00 0.01 0.03 0.02 0.02 0.02 0.02 0.01 0.00 0.00 0.00 0.00 0.00 0.01 0.00 0.00 0.00 0.01 0.03 0.09 0.01 0.06 0.28 0.15 0.22 0.15 0.03 0.00 0.00 0.00 0.00 0.01 0.03 0.06 0.11 0.21
0.00 0.00 0.01 0.02 0.01 0.01 0.00 0.00 0.00 0.00 0.00 0.01 0.01 0.01 0.01 0.01 0.01 0.01 0.01 0.00 0.01 0.00 0.00 0.01 0.14 0.15 0.23 0.25 0.10 0.02 0.02 0.01 0.01 0.04 0.05 0.07 0.10 0.13
0.00 0.01 0.01 0.00 0.00 0.00 0.00 0.00 0.00 0.00 0.01 0.02 0.02 0.01 0.01 0.01 0.01 0.01 0.03 0.02 0.04 0.01 0.00 0.00 0.02 0.13 0.23 0.13 0.13 0.09 0.03 0.09 0.03 0.05 0.10 0.09 0.12 0.17
0.01 0.00 0.00 0.00 0.00 0.00 0.00 0.00 0.00 0.00 0.01 0.01 0.02 0.02 0.02 0.01 0.01 0.01 0.03 0.05 0.08 0.02 0.01 0.00 0.00 0.04 0.11 0.14 0.15 0.06 0.08 0.08 0.07 0.12 0.11 0.07 0.08 0.11
0.00 0.00 0.00 0.00 0.00 0.00 0.00 0.00 0.00 0.01 0.01 0.02 0.03 0.03 0.04 0.05 0.04 0.04 0.04 0.05 0.05 0.02 0.01 0.01 0.03 0.05 0.02 0.01 0.05 0.04 0.04 0.06 0.08 0.10 0.07 0.07 0.05 0.06
0.00 0.00 0.00 0.00 0.00 0.00 0.01 0.02 0.01 0.01 0.02 0.03 0.04 0.05 0.07 0.07 0.07 0.05 0.02 0.03 0.03 0.01 0.01 0.03 0.08 0.15 0.14 0.02 0.00 0.01 0.05 0.04 0.07 0.09 0.07 0.07 0.06 0.04
0.00 0.00 0.00 0.00 0.00 0.02 0.03 0.02 0.03 0.03 0.03 0.04 0.05 0.05 0.06 0.09 0.05 0.03 0.03 0.06 0.08 0.08 0.04 0.01 0.04 0.11 0.21 0.19 0.16 0.01 0.01 0.04 0.06 0.05 0.03 0.04 0.03 0.02
0.00 0.00 0.00 0.00 0.03 0.03 0.03 0.05 0.05 0.05 0.05 0.06 0.03 0.04 0.03 0.08 0.06 0.03 0.04 0.04 0.06 0.06 0.04 0.01 0.01 0.05 0.10 0.08 0.06 0.01 0.00 0.01 0.02 0.05 0.03 0.04 0.02 0.01
0.00 0.00 0.01 0.03 0.03 0.03 0.05 0.04 0.04 0.02 0.02 0.03 0.03 0.03 0.04 0.07 0.09 0.07 0.05 0.06 0.05 0.04 0.05 0.01 0.00 0.02 0.03 0.07 0.04 0.02 0.01 0.00 0.00 0.00 0.01 0.04 0.07 0.06
0.01 0.02 0.03 0.02 0.03 0.04 0.04 0.04 0.04 0.02 0.02 0.04 0.04 0.04 0.05 0.07 0.04 0.06 0.06 0.06 0.06 0.07 0.03 0.03 0.00 0.01 0.02 0.03 0.04 0.02 0.01 0.00 0.00 0.00 0.00 0.00 0.01 0.00

GFSNE_prec_precacc24_189.txt.gz
Total_Precipitation_Accumulation
0.00 0.00 0.00 0.00 0.00 0.00 0.00 0.00 0.00 0.00 0.00 0.00 0.00 0.00 0.00 0.00 0.00 0.00 0.00 0.00 0.00 0.00 0.00 0.00 0.00 0.00 0.00 0.00 0.00 0.00 0.00 0.00 0.00 0.00 0.00 0.01 0.01 0.02
0.00 0.00 0.00 0.00 0.00 0.00 0.00 0.00 0.00 0.00 0.00 0.00 0.00 0.00 0.00 0.00 0.00 0.00 0.00 0.00 0.00 0.00 0.00 0.00 0.00 0.00 0.00 0.00 0.00 0.00 0.00 0.00 0.00 0.01 0.01 0.02 0.02 0.03
0.00 0.00 0.00 0.00 0.00 0.00 0.00 0.00 0.00 0.00 0.00 0.00 0.00 0.00 0.00 0.00 0.00 0.00 0.00 0.00 0.00 0.00 0.00 0.00 0.00 0.00 0.00 0.00 0.00 0.00 0.00 0.00 0.01 0.01 0.02 0.04 0.06 0.10
0.00 0.00 0.00 0.00 0.00 0.00 0.00 0.00 0.00 0.00 0.00 0.00 0.00 0.00 0.00 0.00 0.00 0.00 0.00 0.00 0.00 0.00 0.00 0.00 0.00 0.00 0.00 0.00 0.00 0.00 0.01 0.01 0.01 0.02 0.03 0.05 0.08 0.10
0.00 0.00 0.00 0.00 0.00 0.00 0.00 0.00 0.00 0.00 0.00 0.00 0.00 0.00 0.00 0.00 0.00 0.00 0.00 0.00 0.00 0.00 0.00 0.00 0.00 0.00 0.00 0.00 0.00 0.00 0.01 0.01 0.01 0.03 0.04 0.06 0.06 0.07
0.00 0.00 0.00 0.00 0.00 0.00 0.00 0.00 0.00 0.00 0.00 0.00 0.00 0.00 0.00 0.00 0.00 0.00 0.00 0.00 0.00 0.00 0.00 0.00 0.00 0.00 0.00 0.00 0.00 0.00 0.01 0.02 0.02 0.03 0.05 0.06 0.06 0.06
0.00 0.00 0.00 0.00 0.00 0.00 0.00 0.00 0.00 0.00 0.00 0.00 0.00 0.00 0.00 0.00 0.00 0.00 0.00 0.00 0.00 0.00 0.00 0.00 0.00 0.00 0.00 0.00 0.00 0.00 0.01 0.01 0.02 0.05 0.07 0.07 0.06 0.06
0.00 0.00 0.00 0.00 0.00 0.00 0.00 0.00 0.00 0.00 0.00 0.00 0.00 0.00 0.00 0.00 0.00 0.01 0.02 0.04 0.04 0.01 0.02 0.01 0.00 0.00 0.00 0.00 0.00 0.00 0.00 0.02 0.04 0.04 0.03 0.04 0.06 0.09
0.00 0.00 0.00 0.00 0.00 0.00 0.00 0.00 0.00 0.00 0.00 0.00 0.01 0.00 0.00 0.01 0.02 0.05 0.07 0.12 0.09 0.02 0.02 0.04 0.01 0.00 0.00 0.00 0.00 0.00 0.00 0.03 0.02 0.02 0.02 0.04 0.07 0.07
0.00 0.00 0.00 0.00 0.00 0.00 0.00 0.00 0.00 0.00 0.00 0.00 0.01 0.01 0.01 0.03 0.05 0.12 0.13 0.09 0.02 0.01 0.02 0.03 0.00 0.00 0.00 0.00 0.00 0.00 0.01 0.00 0.01 0.02 0.03 0.05 0.06 0.07
0.00 0.00 0.00 0.00 0.00 0.00 0.00 0.00 0.00 0.00 0.00 0.00 0.01 0.02 0.04 0.04 0.02 0.03 0.03 0.06 0.03 0.00 0.00 0.02 0.01 0.00 0.00 0.00 0.00 0.00 0.00 0.00 0.01 0.01 0.02 0.02 0.04 0.06
0.00 0.00 0.00 0.00 0.00 0.01 0.02 0.02 0.01 0.00 0.00 0.01 0.01 0.01 0.00 0.00 0.00 0.01 0.02 0.07 0.06 0.06 0.00 0.07 0.04 0.04 0.09 0.00 0.00 0.00 0.00 0.00 0.00 0.00 0.01 0.01 0.03 0.03
0.00 0.00 0.00 0.00 0.01 0.03 0.02 0.01 0.01 0.01 0.01 0.00 0.00 0.00 0.00 0.00 0.00 0.00 0.01 0.04 0.14 0.11 0.01 0.19 0.18 0.06 0.16 0.05 0.00 0.00 0.00 0.00 0.00 0.00 0.00 0.01 0.02 0.05
0.00 0.00 0.00 0.01 0.02 0.01 0.00 0.00 0.00 0.00 0.00 0.00 0.00 0.00 0.00 0.01 0.00 0.00 0.00 0.01 0.03 0.09 0.01 0.05 0.25 0.13 0.19 0.12 0.02 0.00 0.00 0.00 0.00 0.00 0.01 0.01 0.02 0.03
0.00 0.00 0.01 0.01 0.00 0.00 0.00 0.00 0.00 0.00 0.00 0.01 0.01 0.01 0.01 0.01 0.01 0.01 0.01 0.00 0.01 0.00 0.00 0.01 0.09 0.10 0.17 0.19 0.07 0.01 0.01 0.00 0.00 0.01 0.01 0.02 0.02 0.01
0.00 0.00 0.00 0.00 0.00 0.00 0.00 0.00 0.00 0.00 0.01 0.01 0.01 0.01 0.01 0.01 0.01 0.01 0.03 0.02 0.04 0.00 0.00 0.00 0.01 0.08 0.14 0.07 0.09 0.05 0.01 0.06 0.02 0.02 0.04 0.02 0.01 0.04
0.00 0.00 0.00 0.00 0.00 0.00 0.00 0.00 0.00 0.00 0.01 0.01 0.02 0.02 0.02 0.01 0.01 0.01 0.03 0.04 0.06 0.02 0.01 0.00 0.00 0.02 0.05 0.07 0.08 0.01 0.03 0.04 0.04 0.05 0.05 0.02 0.02 0.06
0.00 0.00 0.00 0.00 0.00 0.00 0.00 0.00 0.00 0.00 0.01 0.02 0.02 0.02 0.03 0.04 0.04 0.03 0.03 0.03 0.04 0.01 0.01 0.01 0.01 0.03 0.01 0.00 0.01 0.02 0.02 0.04 0.03 0.04 0.05 0.05 0.04 0.05
0.00 0.00 0.00 0.00 0.00 0.00 0.01 0.02 0.01 0.01 0.02 0.02 0.02 0.04 0.06 0.06 0.04 0.03 0.02 0.03 0.03 0.01 0.01 0.02 0.04 0.10 0.13 0.03 0.00 0.00 0.04 0.02 0.04 0.04 0.05 0.06 0.06 0.04
0.00 0.00 0.00 0.00 0.00 0.02 0.02 0.01 0.02 0.02 0.02 0.02 0.03 0.03 0.03 0.06 0.04 0.03 0.03 0.05 0.07 0.07 0.03 0.01 0.02 0.08 0.19 0.18 0.16 0.01 0.00 0.02 0.04 0.03 0.02 0.02 0.02 0.01
0.00 0.00 0.00 0.00 0.02 0.02 0.01 0.02 0.03 0.03 0.03 0.04 0.03 0.03 0.03 0.08 0.05 0.02 0.03 0.04 0.06 0.05 0.04 0.01 0.01 0.04 0.08 0.08 0.08 0.01 0.00 0.01 0.02 0.04 0.03 0.05 0.02 0.01
0.00 0.00 0.00 0.02 0.02 0.01 0.03 0.03 0.04 0.02 0.02 0.03 0.02 0.03 0.03 0.06 0.07 0.06 0.04 0.05 0.04 0.04 0.04 0.01 0.00 0.01 0.02 0.07 0.05 0.02 0.00 0.00 0.00 0.00 0.01 0.04 0.07 0.07
0.00 0.01 0.02 0.02 0.02 0.03 0.04 0.04 0.04 0.02 0.01 0.03 0.03 0.03 0.05 0.07 0.04 0.05 0.05 0.05 0.06 0.06 0.03 0.03 0.00 0.01 0.02 0.03 0.03 0.02 0.00 0.00 0.00 0.00 0.00 0.00 0.00 0.00

GFSNE_prec_precacc24_195.txt.gz
Total_Precipitation_Accumulation
0.00 0.00 0.00 0.00 0.00 0.00 0.00 0.00 0.00 0.00 0.00 0.00 0.00 0.00 0.00 0.00 0.00 0.00 0.00 0.00 0.00 0.00 0.00 0.00 0.00 0.00 0.00 0.00 0.00 0.00 0.00 0.00 0.00 0.00 0.01 0.01 0.01 0.02
0.00 0.00 0.00 0.00 0.00 0.00 0.00 0.00 0.00 0.00 0.00 0.00 0.00 0.00 0.00 0.00 0.00 0.00 0.00 0.00 0.00 0.00 0.00 0.00 0.00 0.00 0.00 0.00 0.00 0.00 0.00 0.00 0.00 0.01 0.01 0.01 0.02 0.03
0.00 0.00 0.00 0.00 0.00 0.00 0.00 0.00 0.00 0.00 0.00 0.00 0.00 0.00 0.00 0.00 0.00 0.00 0.00 0.00 0.00 0.00 0.00 0.00 0.00 0.00 0.00 0.00 0.00 0.00 0.00 0.00 0.00 0.01 0.00 0.02 0.04 0.09
0.00 0.00 0.00 0.00 0.00 0.00 0.00 0.00 0.00 0.00 0.00 0.00 0.00 0.00 0.00 0.00 0.00 0.00 0.00 0.00 0.00 0.00 0.00 0.00 0.00 0.00 0.00 0.00 0.00 0.00 0.01 0.01 0.01 0.01 0.02 0.03 0.06 0.09
0.00 0.00 0.00 0.00 0.00 0.00 0.00 0.00 0.00 0.00 0.00 0.00 0.00 0.00 0.00 0.00 0.00 0.00 0.00 0.00 0.00 0.00 0.00 0.00 0.00 0.00 0.00 0.00 0.00 0.00 0.01 0.01 0.01 0.02 0.03 0.05 0.05 0.06
0.00 0.00 0.00 0.00 0.00 0.00 0.00 0.00 0.00 0.00 0.00 0.00 0.00 0.00 0.00 0.00 0.00 0.00 0.00 0.00 0.00 0.00 0.00 0.00 0.00 0.00 0.00 0.00 0.00 0.00 0.01 0.02 0.02 0.03 0.05 0.06 0.08 0.06
0.00 0.00 0.00 0.00 0.00 0.00 0.00 0.00 0.00 0.00 0.00 0.00 0.00 0.00 0.00 0.00 0.00 0.00 0.00 0.00 0.00 0.00 0.00 0.00 0.00 0.00 0.00 0.00 0.00 0.00 0.01 0.01 0.02 0.05 0.08 0.07 0.06 0.05
0.00 0.00 0.00 0.00 0.00 0.00 0.00 0.00 0.00 0.00 0.00 0.00 0.00 0.00 0.00 0.00 0.00 0.00 0.02 0.03 0.03 0.01 0.01 0.00 0.00 0.00 0.00 0.00 0.00 0.00 0.00 0.01 0.04 0.04 0.04 0.03 0.05 0.08
0.00 0.00 0.00 0.00 0.00 0.00 0.00 0.00 0.00 0.00 0.00 0.00 0.00 0.00 0.00 0.00 0.01 0.03 0.03 0.04 0.01 0.00 0.00 0.00 0.00 0.00 0.00 0.00 0.00 0.00 0.01 0.03 0.02 0.02 0.02 0.04 0.06 0.06
0.00 0.00 0.00 0.00 0.00 0.00 0.00 0.00 0.00 0.00 0.00 0.00 0.00 0.00 0.00 0.01 0.01 0.02 0.01 0.02 0.00 0.00 0.00 0.01 0.00 0.00 0.00 0.00 0.00 0.00 0.01 0.01 0.00 0.01 0.02 0.03 0.05 0.06
0.00 0.00 0.00 0.00 0.00 0.00 0.00 0.00 0.00 0.00 0.00 0.00 0.00 0.00 0.00 0.00 0.00 0.01 0.02 0.03 0.02 0.00 0.00 0.02 0.01 0.00 0.00 0.00 0.00 0.00 0.00 0.00 0.00 0.01 0.01 0.01 0.03 0.04
0.00 0.00 0.00 0.00 0.00 0.00 0.00 0.00 0.00 0.00 0.00 0.00 0.00 0.00 0.00 0.00 0.00 0.00 0.02 0.06 0.05 0.04 0.00 0.06 0.03 0.04 0.07 0.00 0.00 0.00 0.00 0.00 0.00 0.00 0.01 0.01 0.03 0.03
0.00 0.00 0.00 0.00 0.00 0.01 0.00 0.00 0.00 0.00 0.00 0.00 0.00 0.00 0.00 0.00 0.00 0.00 0.01 0.03 0.09 0.08 0.01 0.14 0.14 0.04 0.12 0.03 0.00 0.00 0.00 0.00 0.00 0.00 0.00 0.01 0.02 0.03
0.00 0.00 0.00 0.00 0.00 0.00 0.00 0.00 0.00 0.00 0.00 0.00 0.00 0.00 0.00 0.01 0.00 0.00 0.00 0.01 0.03 0.06 0.01 0.03 0.14 0.11 0.15 0.10 0.02 0.00 0.00 0.00 0.00 0.00 0.01 0.01 0.01 0.01
0.00 0.00 0.00 0.00 0.00 0.00 0.00 0.00 0.00 0.00 0.00 0.00 0.00 0.00 0.01 0.01 0.01 0.01 0.01 0.00 0.01 0.00 0.00 0.01 0.03 0.03 0.09 0.13 0.06 0.01 0.01 0.00 0.00 0.01 0.01 0.01 0.01 0.00
0.00 0.00 0.00 0.00 0.00 0.00 0.00 0.00 0.00 0.00 0.00 0.01 0.01 0.00 0.01 0.01 0.01 0.01 0.02 0.01 0.02 0.00 0.00 0.00 0.00 0.02 0.05 0.03 0.05 0.03 0.00 0.02 0.00 0.00 0.01 0.00 0.00 0.01
0.00 0.00 0.00 0.00 0.00 0.00 0.00 0.00 0.00 0.00 0.00 0.01 0.01 0.01 0.01 0.01 0.01 0.01 0.01 0.03 0.03 0.01 0.00 0.00 0.00 0.00 0.01 0.01 0.02 0.00 0.01 0.01 0.01 0.00 0.01 0.01 0.00 0.01
0.00 0.00 0.00 0.00 0.00 0.00 0.00 0.00 0.00 0.00 0.00 0.01 0.01 0.02 0.02 0.03 0.03 0.02 0.01 0.02 0.03 0.01 0.01 0.01 0.01 0.02 0.01 0.00 0.00 0.01 0.01 0.01 0.01 0.00 0.00 0.03 0.01 0.00
0.00 0.00 0.00 0.00 0.00 0.00 0.00 0.01 0.00 0.00 0.01 0.01 0.01 0.02 0.04 0.05 0.02 0.02 0.01 0.03 0.03 0.01 0.01 0.01 0.02 0.07 0.12 0.03 0.00 0.00 0.01 0.01 0.01 0.01 0.00 0.01 0.02 0.00
0.00 0.00 0.00 0.00 0.00 0.00 0.01 0.01 0.01 0.01 0.01 0.02 0.02 0.03 0.03 0.05 0.04 0.02 0.02 0.04 0.06 0.06 0.03 0.01 0.01 0.04 0.15 0.14 0.15 0.01 0.00 0.01 0.03 0.02 0.01 0.01 0.00 0.00
0.00 0.00 0.00 0.00 0.00 0.01 0.01 0.01 0.02 0.03 0.02 0.03 0.02 0.02 0.02 0.06 0.04 0.02 0.02 0.03 0.04 0.04 0.03 0.01 0.01 0.01 0.06 0.08 0.08 0.01 0.00 0.00 0.01 0.03 0.03 0.09 0.03 0.01
0.00 0.00 0.00 0.00 0.01 0.01 0.02 0.03 0.03 0.02 0.02 0.02 0.02 0.02 0.02 0.04 0.05 0.04 0.03 0.04 0.03 0.03 0.04 0.01 0.00 0.01 0.02 0.06 0.04 0.01 0.00 0.00 0.00 0.00 0.00 0.04 0.10 0.12
0.00 0.00 0.01 0.01 0.01 0.02 0.03 0.03 0.03 0.02 0.01 0.02 0.02 0.02 0.03 0.05 0.02 0.03 0.03 0.04 0.04 0.05 0.02 0.02 0.00 0.00 0.01 0.01 0.02 0.02 0.00 0.00 0.00 0.00 0.00 0.00 0.00 0.00